Manaung Airport


Codes: VYMN/MGU
Name: Manaung Airport
City: Manaung
Country: Myanmar [Burma]
Elevation: 102 ft.

Photos at Manaung Airport


   Photos courtesy of SpottingLog. You can add your own sightings and photos by signing up for a free trial today.



No photos found.

Weather at Manaung Airport


Time (UTC)DescriptionTempratureWindCloud coverageVisibilityPressureHumidity
16-Jun-2024 03:00Light Rain28°C11 mph, S81%10000m1007hPa81%
16-Jun-2024 06:00Light Rain29°C11 mph, S85%10000m1007hPa79%
16-Jun-2024 09:00Light Rain29°C9 mph, S100%10000m1004hPa78%
16-Jun-2024 12:00Overcast Clouds28°C7 mph, S95%10000m1005hPa83%
16-Jun-2024 15:00Light Rain28°C9 mph, S100%10000m1006hPa85%
16-Jun-2024 18:00Light Rain27°C7 mph, SW97%10000m1006hPa86%
16-Jun-2024 21:00Light Rain27°C7 mph, SW100%10000m1005hPa86%
17-Jun-2024 00:00Moderate Rain28°C7 mph, S100%10000m1006hPa84%
17-Jun-2024 03:00Light Rain27°C9 mph, SW100%5928m1008hPa85%
17-Jun-2024 06:00Light Rain28°C9 mph, SW100%10000m1007hPa85%
17-Jun-2024 09:00Light Rain28°C9 mph, SW100%37m1006hPa85%
17-Jun-2024 12:00Moderate Rain27°C7 mph, SW96%5881m1006hPa87%
17-Jun-2024 15:00Light Rain27°C7 mph, SW92%10000m1007hPa85%
17-Jun-2024 18:00Light Rain27°C7 mph, S88%10000m1006hPa84%
17-Jun-2024 21:00Light Rain27°C7 mph, SW98%10000m1005hPa86%
18-Jun-2024 00:00Moderate Rain27°C7 mph, SW99%10000m1007hPa86%
18-Jun-2024 03:00Light Rain28°C9 mph, SW100%10000m1007hPa83%
18-Jun-2024 06:00Light Rain28°C11 mph, SW100%10000m1007hPa80%
18-Jun-2024 09:00Light Rain28°C11 mph, SW100%10000m1005hPa82%
18-Jun-2024 12:00Light Rain28°C13 mph, SW100%10000m1005hPa83%
18-Jun-2024 15:00Light Rain28°C13 mph, SW100%10000m1007hPa83%
18-Jun-2024 18:00Light Rain27°C9 mph, SW100%10000m1006hPa85%
18-Jun-2024 21:00Light Rain27°C9 mph, SW100%10000m1004hPa86%
19-Jun-2024 00:00Moderate Rain27°C7 mph, SW100%8244m1005hPa88%
19-Jun-2024 03:00Moderate Rain28°C7 mph, SW95%8401m1006hPa83%
19-Jun-2024 06:00Moderate Rain29°C9 mph, SW86%10000m1005hPa76%
19-Jun-2024 09:00Light Rain29°C11 mph, SW76%10000m1004hPa75%
19-Jun-2024 12:00Light Rain28°C7 mph, SW86%10000m1004hPa81%
19-Jun-2024 15:00Light Rain28°C7 mph, S76%6074m1005hPa84%
19-Jun-2024 18:00Light Rain28°C7 mph, S88%10000m1005hPa84%
19-Jun-2024 21:00Light Rain28°C9 mph, SW71%10000m1003hPa83%
20-Jun-2024 00:00Moderate Rain27°C7 mph, SW74%9352m1005hPa84%
20-Jun-2024 03:00Light Rain29°C7 mph, S100%10000m1006hPa75%
20-Jun-2024 06:00Light Rain29°C9 mph, SW99%8739m1005hPa74%
20-Jun-2024 09:00Light Rain29°C11 mph, SW99%10000m1004hPa74%
20-Jun-2024 12:00Light Rain28°C7 mph, SW100%5975m1004hPa84%
20-Jun-2024 15:00Light Rain28°C7 mph, SW99%10000m1005hPa82%
20-Jun-2024 18:00Light Rain28°C7 mph, SW100%10000m1004hPa83%
20-Jun-2024 21:00Light Rain27°C7 mph, SW99%10000m1003hPa84%
21-Jun-2024 00:00Light Rain28°C7 mph, S100%10000m1004hPa81%